Regional Weather Roundup
Issued by NWS

Home | Current Version | Previous Version | Text Only | Print | Product List | Glossary On
Versions: 1 2 3 4 5 6 7 8 9 10 11 12 13 14 15 16 17 18 19 20 21 22 23 24 25 26 27 28 29 30 31 32 33 34 35 36 37 38 39 40 41 42 43 44 45 46 47 48 49 50
000
ASUS43 KDTX 260701
RWRMI
MICHIGAN HOURLY REGIONAL WEATHER ROUNDUP
NATIONAL WEATHER SERVICE DETROIT/PONTIAC MI
200 AM EST WED NOV 26 2014

NOTE: "FAIR" INDICATES FEW OR NO CLOUDS BELOW 12,000 FEET WITH NO
SIGNIFICANT WEATHER AND/OR OBSTRUCTION TO VISIBILITY.

MIZ047>049-052>055-059>063-066>070-074>076-081>083-260800-
SOUTHEAST LOWER MICHIGAN

CITY           SKY/WX    TMP DP  RH WIND       PRES   REMARKS
ADRIAN         CLOUDY    27  20  75 E6        30.18F WCI  20
ALMA           CLOUDY    29  22  74 CALM      30.19R
ANN ARBOR      CLOUDY    28  19  69 CALM      30.17F
BAD AXE        CLOUDY    30  23  76 SW6       30.20R WCI  24
CARO           CLOUDY    30  23  74 CALM      30.19S
DETROIT CITY   CLOUDY    32  21  64 CALM      30.19F
DETROIT        CLOUDY    30  20  66 CALM      30.19F
FLINT          CLOUDY    31  20  63 NW5       30.19F WCI  26
GROSSE ILE     CLOUDY    30  21  69 CALM      30.18F
HILLSDALE      CLOUDY    26  21  80 CALM      30.14F
HOWELL         CLOUDY    28  20  74 SW5       30.17F WCI  22

CITY           SKY/WX    TMP DP  RH WIND       PRES   REMARKS
JACKSON        CLOUDY    27  20  75 N3        30.16F
LAMBERTVILLE   CLOUDY    30  23  74 CALM      30.18F
LANSING        CLOUDY    28  20  71 SW5       30.18F WCI  23
LAPEER         CLOUDY    30  22  73 CALM      30.19F
MASON          CLOUDY    28  21  75 CALM      30.18F
MONROE         CLOUDY    28  21  74 CALM      30.17F
MT. CLEMENS    CLOUDY    31  24  75 NE2       30.17F
PONTIAC        CLOUDY    29  20  69 CALM      30.16F
PORT HOPE        N/A     31  22  69 SW5       30.19R WCI  26
PORT HURON     CLOUDY    30  23  74 CALM      30.20F
TRI CITIES     CLOUDY    31  21  66 W3        30.20S
TROY           CLOUDY    32  23  69 CALM      30.19F
SAGINAW HB     CLOUDY    32  23  69 W3        30.20R
$$
MIZ043>046-050>051-056>058-064>065-071>073-077>080-260800-
SOUTHWEST LOWER MICHIGAN

CITY           SKY/WX    TMP DP  RH WIND       PRES   REMARKS
BATTLE CREEK   CLOUDY    28  19  69 S6        30.17F WCI  22
BENTON HARBOR  CLOUDY    24  18  77 SE5       30.19F WCI  18
BIG RAPIDS     CLOUDY    27  25  93 CALM      30.16R
COLDWATER      CLOUDY    27  20  76 CALM      30.16F
FREMONT        CLOUDY    27  25  91 CALM      30.16S
HOLLAND        CLOUDY    29  22  75 S8        30.17F WCI  21
GRAND RAPIDS   CLOUDY    28  22  78 S6        30.17F WCI  22
IONIA          CLOUDY    30  22  71 SW8       30.17S WCI  22
KALAMAZOO      CLOUDY    27  18  69 SW3       30.17F
LUDINGTON      CLOUDY    27  24  89 CALM      30.17S
MARSHALL       CLOUDY    26  19  74 CALM      30.16F
MOUNT PLEASANT CLOUDY    29  22  74 CALM      30.17F
MUSKEGON       CLOUDY    31  21  66 SW10      30.17S WCI  22
SOUTH HAVEN    CLOUDY    28  22  76 S6        30.18S WCI  22
$$
MIZ016>042-260800-
NORTHERN LOWER MICHIGAN

CITY           SKY/WX    TMP DP  RH WIND       PRES   REMARKS
ALPENA         CLOUDY    27  25  92 SW3       30.19R
BEAVER ISLAND  CLOUDY    26  23  85 CALM      30.17R
BELLAIRE       FLURRIES  27  23  83 S5        30.19R WCI  22
CADILLAC       CLOUDY    24  19  82 SW5       30.13S WCI  18
CHARLEVOIX     CLOUDY    27  24  87 SE5       30.19S WCI  22
FRANKFORT      CLOUDY    26  24  89 SE3       30.17S
GAYLORD        CLOUDY    23  18  81 SW8       30.14S WCI  14
GRAYLING       FLURRIES  25  21  85 CALM      30.16S
HARBOR SPRINGS CLOUDY    28  24  88 S6        30.17R WCI  21
HOUGHTON LAKE  CLOUDY    25  19  78 W6        30.16S WCI  18
MANISTEE       CLOUDY    27  21  80 SE3       30.18R
OSCODA         CLOUDY    29  24  80 CALM      30.19S
PELLSTON       CLOUDY    26  22  84 NE5       30.18R WCI  20
ROGERS CITY    CLOUDY    27  25  95 CALM      30.19S
TRAVERSE CITY  CLOUDY    27  22  81 S3        30.17S
$$
MIZ007>008-015-260800-
EASTERN UPPER MICHIGAN

CITY           SKY/WX    TMP DP  RH WIND       PRES   REMARKS
KINROSS        CLOUDY    19  18  93 NW7       30.16R WCI  10
MACKINAC ISLAN CLOUDY    26  19  75 CALM      30.17R
NEWBERRY       PTCLDY     8   8  97 CALM      30.15S
S. S. MARIE    CLOUDY    24  17  74 SW9       30.19R WCI  14
MUNISING         N/A      7   2  80 S9        30.15R WCI  -7
$$
MIZ004>006-011>014-085-260800-
CENTRAL UPPER MICHIGAN

CITY           SKY/WX    TMP DP  RH WIND       PRES   REMARKS
MANISTIQUE     CLOUDY    14  13  94 CALM      30.15S
ESCANABA       CLOUDY    16  10  79 W5        30.15S WCI   9
MENOMINEE      CLOUDY    18  12  79 W3        30.18R
SAWYER-GWINN   PTCLDY    -2  -6  83 CALM      30.10S
$$
MIZ001>003-009>011-084-260800-
WESTERN UPPER MICHIGAN

CITY           SKY/WX    TMP DP  RH WIND       PRES   REMARKS
IRON MOUNTAIN  CLEAR     -1  -6  79 CALM      30.11F
HOUGHTON       PTCLDY    14   9  80 W3        30.08S
COPPER HARBOR    N/A     24  14  65 SW7       30.10S WCI  16
IRONWOOD       CLOUDY     7   0  72 CALM      30.05S
$$

ABBREVIATIONS USED IN REMARKS
   TC - TEMPERATURE IN CELSIUS
  WCI - WIND CHILL INDEX
   HX - HEAT INDEX
  VSB - VISIBILITY



USA.gov is the U.S. government's official web portal to all federal, state and local government web resources and services.